Tehachapi, CA

5:45 PM PST on February 09, 2016 (GMT -0800)
Tehachapi Municipal

Weather History for KTSP - October, 2011

Change the Weather History Date:

Saturday, October 1, 2011

  Actual Average Record
Temperature  
Mean Temperature 65 °F -  
Max Temperature 82 °F 77 °F 89 °F (2012)
Min Temperature 48 °F 47 °F 39 °F (2014)
Growing Degree Days 15 (Base 50)    
Moisture  
Dew Point 39 °F    
Average Humidity 39    
Maximum Humidity 62    
Minimum Humidity 21    
Precipitation  
Precipitation 0.00 in - - ()
Sea Level Pressure  
Sea Level Pressure 30.11 in    
Wind  
Wind Speed 5 mph (North)    
Max Wind Speed 18 mph    
Max Gust Speed 23 mph    
Visibility 9 miles    
Events      
Averages and records for this station are not official NWS values.
T = Trace of Precipitation, MM = Missing Value Source: NWS Daily Summary

Daily Weather History Graph

Daily Weather History Graph

Search for Another Location

Airport or City:

Trip Planner

Search our weather history database for the weather conditions in past years. The results will help you decide how hot, cold, wet, or windy it might be!

Date:

Astronomy

Oct. 01, 2011 Rise Set
Actual Time 6:48 AM PDT 6:37 PM PDT
Civil Twilight 6:23 AM PDT 7:03 PM PDT
Nautical Twilight 5:53 AM PDT 7:32 PM PDT
Astronomical Twilight 5:24 AM PDT 8:02 PM PDT
Moon 11:46 AM PDT (10/1) 9:52 PM PDT (10/1)
Length of Visible Light 12h 40m
Length of Day
11h 49m
Waxing Crescent, 25% of the Moon is Illuminated
Oct 1
Waxing Crescent
Oct 3
First Quarter
Oct 11
Full
Oct 19
Last Quarter
Oct 26
New

Hourly Weather History & Observations

Time (PDT) Temp. Dew Point Humidity Pressure Visibility Wind Dir Wind Speed Gust Speed Precip Events Conditions
12:15 AM 55.4 °F 35.6 °F 47% 30.11 in 10.0 mi East 3.5 mph - N/A   Scattered Clouds
12:35 AM 55.4 °F 35.6 °F 47% 30.11 in 10.0 mi ESE 5.8 mph - N/A   Mostly Cloudy
12:55 AM 55.4 °F 35.6 °F 47% 30.11 in 10.0 mi Calm Calm - N/A   Unknown
1:15 AM 53.6 °F 35.6 °F 51% 30.11 in 10.0 mi ENE 4.6 mph - N/A   Unknown
1:35 AM 55.4 °F 33.8 °F 44% 30.11 in 10.0 mi Calm Calm - N/A   Clear
1:55 AM 55.4 °F 33.8 °F 44% 30.11 in 10.0 mi ESE 4.6 mph - N/A   Unknown
2:15 AM 55.4 °F 35.6 °F 47% 30.11 in 10.0 mi Calm Calm - N/A   Unknown
2:35 AM 51.8 °F 32.0 °F 47% 30.11 in 10.0 mi East 3.5 mph - N/A   Clear
2:55 AM 53.6 °F 32.0 °F 44% 30.11 in 10.0 mi Calm Calm - N/A   Unknown
3:15 AM 55.4 °F 35.6 °F 47% 30.10 in 10.0 mi East 5.8 mph - N/A   Unknown
3:35 AM 51.8 °F 32.0 °F 47% 30.10 in 10.0 mi South 3.5 mph - N/A   Unknown
3:55 AM 53.6 °F 33.8 °F 47% 30.10 in 10.0 mi SE 5.8 mph - N/A   Unknown
4:15 AM 53.6 °F 35.6 °F 51% 30.10 in 10.0 mi Calm Calm - N/A   Unknown
4:35 AM 51.8 °F 35.6 °F 54% 30.10 in 10.0 mi ESE 3.5 mph - N/A   Unknown
4:55 AM 51.8 °F 35.6 °F 54% 30.10 in 10.0 mi ENE 3.5 mph - N/A   Clear
5:15 AM 50.0 °F 33.8 °F 54% 30.10 in 10.0 mi Calm Calm - N/A   Clear
5:35 AM 50.0 °F 35.6 °F 58% 30.10 in 10.0 mi ESE 4.6 mph - N/A   Clear
5:55 AM 50.0 °F 35.6 °F 58% 30.11 in 10.0 mi SE 4.6 mph - N/A   Clear
6:15 AM 50.0 °F 35.6 °F 58% 30.11 in 10.0 mi Calm Calm - N/A   Clear
6:35 AM 48.2 °F 35.6 °F 62% 30.12 in 10.0 mi Calm Calm - N/A   Unknown
7:15 AM 50.0 °F 35.6 °F 58% 30.12 in 7.0 mi Calm Calm - N/A   Clear
7:35 AM 53.6 °F 39.2 °F 58% 30.13 in 9.0 mi ESE 4.6 mph - N/A   Clear
7:55 AM 59.0 °F 39.2 °F 48% 30.13 in 9.0 mi SE 3.5 mph - N/A   Clear
8:15 AM 62.6 °F 39.2 °F 42% 30.13 in 10.0 mi Calm Calm - N/A   Clear
8:35 AM 68.0 °F 39.2 °F 35% 30.13 in 10.0 mi WSW 3.5 mph - N/A   Clear
8:55 AM 68.0 °F 41.0 °F 37% 30.13 in 10.0 mi SE 5.8 mph - N/A   Clear
9:15 AM - - N/A% 30.13 in 10.0 mi SSE 4.6 mph - N/A   Unknown
9:35 AM 75.2 °F 39.2 °F 27% 30.13 in 10.0 mi ESE 8.1 mph - N/A   Clear
9:55 AM 77.0 °F 39.2 °F 26% 30.14 in 9.0 mi ESE 8.1 mph - N/A   Clear
10:15 AM 77.0 °F 39.2 °F 26% 30.14 in 9.0 mi ESE 5.8 mph - N/A   Clear
10:35 AM 77.0 °F 39.2 °F 26% 30.14 in 10.0 mi Calm Calm - N/A   Clear
10:55 AM 78.8 °F 41.0 °F 26% 30.14 in 8.0 mi NW 5.8 mph - N/A   Clear
11:15 AM 80.6 °F 41.0 °F 24% 30.14 in 9.0 mi NW 5.8 mph - N/A   Clear
11:35 AM 80.6 °F 37.4 °F 21% 30.14 in 9.0 mi Calm Calm - N/A   Clear
11:55 AM 80.6 °F 41.0 °F 24% 30.13 in 8.0 mi WNW 4.6 mph - N/A   Clear
12:15 PM 82.4 °F 41.0 °F 23% 30.13 in 7.0 mi NNW 6.9 mph - N/A   Clear
12:35 PM 82.4 °F 42.8 °F 25% 30.13 in 9.0 mi NW 6.9 mph - N/A   Clear
12:55 PM 82.4 °F 42.8 °F 25% 30.12 in 7.0 mi NW 12.7 mph - N/A   Clear
1:15 PM 82.4 °F 44.6 °F 26% 30.12 in 9.0 mi NW 15.0 mph 20.7 mph N/A   Clear
1:35 PM 80.6 °F 44.6 °F 28% 30.11 in 7.0 mi NW 17.3 mph 20.7 mph N/A   Clear
1:55 PM 80.6 °F 44.6 °F 28% 30.11 in 8.0 mi NW 18.4 mph - N/A   Clear
2:15 PM 80.6 °F 44.6 °F 28% 30.10 in 9.0 mi NW 15.0 mph 21.9 mph N/A   Clear
2:35 PM 78.8 °F 46.4 °F 32% 30.10 in 8.0 mi NW 16.1 mph 23.0 mph N/A   Clear
2:55 PM 78.8 °F 46.4 °F 32% 30.10 in 8.0 mi NW 17.3 mph 21.9 mph N/A   Clear
3:15 PM 77.0 °F 46.4 °F 34% 30.10 in 9.0 mi NW 15.0 mph 20.7 mph N/A   Clear
3:35 PM 77.0 °F 44.6 °F 32% 30.10 in 9.0 mi WNW 13.8 mph 21.9 mph N/A   Clear
3:55 PM 77.0 °F 41.0 °F 28% 30.10 in 9.0 mi NW 15.0 mph - N/A   Clear
4:15 PM 77.0 °F 37.4 °F 24% 30.10 in 10.0 mi NW 17.3 mph 23.0 mph N/A   Clear
4:35 PM 77.0 °F 39.2 °F 26% 30.10 in 10.0 mi NW 18.4 mph 23.0 mph N/A   Clear
4:55 PM 75.2 °F 41.0 °F 29% 30.10 in 10.0 mi NW 17.3 mph 21.9 mph N/A   Clear
5:15 PM 75.2 °F 42.8 °F 31% 30.09 in 9.0 mi NW 16.1 mph 20.7 mph N/A   Clear
5:35 PM 73.4 °F 42.8 °F 33% 30.09 in 10.0 mi NW 12.7 mph 20.7 mph N/A   Clear
5:55 PM 73.4 °F 42.8 °F 33% 30.09 in 9.0 mi NW 13.8 mph - N/A   Clear
6:15 PM 71.6 °F 44.6 °F 38% 30.10 in 9.0 mi NW 10.4 mph - N/A   Clear
6:35 PM 68.0 °F 44.6 °F 43% 30.10 in 9.0 mi NW 10.4 mph - N/A   Clear
6:55 PM 68.0 °F 44.6 °F 43% 30.10 in 10.0 mi NNW 6.9 mph - N/A   Clear
7:15 PM 64.4 °F 44.6 °F 49% 30.10 in 10.0 mi NW 5.8 mph - N/A   Clear
7:35 PM 64.4 °F 44.6 °F 49% 30.11 in 10.0 mi West 5.8 mph - N/A   Clear
7:55 PM 64.4 °F 44.6 °F 49% 30.11 in 10.0 mi WNW 5.8 mph - N/A   Clear
8:15 PM 64.4 °F 44.6 °F 49% 30.12 in 10.0 mi WNW 5.8 mph - N/A   Clear
8:35 PM 62.6 °F 46.4 °F 55% 30.12 in 10.0 mi NNW 4.6 mph - N/A   Unknown
8:55 PM 62.6 °F 44.6 °F 52% 30.13 in 10.0 mi Calm Calm - N/A   Clear
9:15 PM 62.6 °F 42.8 °F 48% 30.14 in 10.0 mi Calm Calm - N/A   Clear
9:35 PM 59.0 °F 41.0 °F 51% 30.14 in 10.0 mi Calm Calm - N/A   Clear
9:55 PM 59.0 °F 42.8 °F 55% 30.14 in 9.0 mi Calm Calm - N/A   Unknown
10:15 PM 59.0 °F 42.8 °F 55% 30.14 in 10.0 mi Calm Calm - N/A   Clear
10:35 PM 57.2 °F 41.0 °F 55% 30.14 in 10.0 mi Calm Calm - N/A   Clear
10:55 PM 55.4 °F 41.0 °F 58% 30.15 in 10.0 mi Calm Calm - N/A   Unknown
11:15 PM 55.4 °F 41.0 °F 58% 30.15 in 10.0 mi Calm Calm - N/A   Unknown
11:35 PM 57.2 °F 42.8 °F 59% 30.15 in 10.0 mi Calm Calm - N/A   Unknown
11:55 PM 53.6 °F 41.0 °F 62% 30.15 in 10.0 mi Calm Calm - N/A   Unknown